カタログに戻る

FENGYUN 1C DEB

LostPO
NORAD 41000·DEBRIS·🇨🇳 China

打ち上げ May 10, 1999 から Taiyuan Satellite Launch Center

Loading…

次のパス (今後24時間)

TLE

古いSource: Space-Track

元期: Sep 27, 2024, 19:40 UTC

1 41000U 99025EXE 24271.81974190  .00009075  00000-0  66048-2 0  9992
2 41000  97.5276 284.7712 0360446  89.5254 274.7183 13.69555352782823

AllMySatでFENGYUN 1C DEBをリアルタイム追跡

Download on the App Store